Location: Boiro
(42.6475°N, 8.8834°W)
Time: 07:22:15
(UTC+01:00)

Vanguard 1 - Pass Details

Date: 04 December 2021
Orbit: 652 x 3830 km, 34.2° (Epoch: 21 January)

Event Time Altitude Azimuth Distance (km) Brightness Sun altitude
Rises 01:23:09 0° 234° (SW) 7,144 - -69.6°
Reaches altitude 10° 01:27:37 10° 231° (SW) 6,407 - -69.6°
Maximum altitude 01:49:15 58° 159° (SSE) 4,208 - -69.0°
Exits shadow 02:03:38 26° 95° (E) 5,179 13.6 -68.1°
Drops below altitude 10° 02:09:24 10° 88° (E) 6,043 14.1 -67.7°
Sets 02:13:26 0° 85° (E) 6,740 14.5 -67.3°
